Regional Weather Roundup
Issued by NWS

Home | Current Version | Previous Version | Graphics & Text | Print | Product List | Glossary On
Versions: 1 2 3 4 5 6 7 8 9 10 11 12 13 14 15 16 17 18 19 20 21 22 23 24 25 26 27
000
ASUS45 KBOU 232307
RWRCO

WEATHER ROUNDUP FOR COLORADO
NATIONAL WEATHER SERVICE DENVER/BOULDER CO
500 PM MDT TUE MAY 23 2017

NOTE: "FAIR" INDICATES FEW OR NO CLOUDS BELOW 12000 FEET WITH NO
SIGNIFICANT WEATHER AND/OR OBSTRUCTIONS TO VISIBILITY.

COZ001>005-013-030-031-240000-
...NORTHWEST COLORADO...

CITY           SKY/WX    TMP DP  RH WIND       PRES   REMARKS
CRAIG          FAIR      61  29  29 SW8       30.20F
HAYDEN         FAIR      59  27  29 N9        30.22S
MEEKER         FAIR      63  27  25 NE7G18    30.20F
RABBIT EARS PA CLOUDY    34  32  93 W6        30.35S WCI  29
STEAMBOAT SPGS FAIR      54  32  43 S5        30.22F
WALDEN           N/A     50  25  37 N9G17     30.25S
$$

COZ006>008-011-240000-
...WEST CENTRAL VALLEYS...

CITY           SKY/WX    TMP DP  RH WIND       PRES   REMARKS
GRAND JUNCTION FAIR      73  27  18 SW9       30.10F
MONTROSE       FAIR      68  19  15 VRB7      30.18F
EAGLE          MOSUNNY   63  23  22 N7        30.22S
RIFLE          FAIR      68  21  16 W14       30.15F
DELTA          FAIR      75  14   9 N10G20    30.13F
NUCLA          FAIR      72  18  13 N10G17    30.19F
$$

COZ017>023-064>068-240000-
...SOUTHWEST COLORADO...

CITY           SKY/WX    TMP DP  RH WIND       PRES   REMARKS
DURANGO        FAIR      72   4   7 NW18G29   30.06F
CORTEZ         FAIR      73  19  13 N21G30    30.13F
PAGOSA SPRINGS FAIR      69   5   8 SW5       30.12F
TELLURIDE      FAIR      56  21  25 N5        30.31F
WOLF CREEK PAS FAIR      39  10  30 NW8       30.41S
$$

COZ009-010-012-014-032>034-037-058>063-240000-
...CENTRAL COLORADO...

CITY           SKY/WX    TMP DP  RH WIND       PRES   REMARKS
ASPEN          FAIR      58  24  27 N12G20    30.21F
BUENA VISTA    FAIR      58  18  21 N14G30    30.19S
COPPER MTN     CLOUDY    34  21  60 MISG      30.36S HAZE
BERTHOUD PASS  PTSUNNY   23  14  68 NW37G45   30.31S WCI   4
COTTONWOOD PAS FAIR      54  18  24 N3        30.27S
GUNNISON       FAIR      60  19  20 NW15G26   30.20S
KREMMLING      FAIR      59  28  31 NW9       30.24F
LEADVILLE      FAIR      46  17  31 NW16G30   30.28S
MONARCH PASS   FAIR      39  14  35 N14G23    30.46F
SALIDA         FAIR      64  13  14 N16       30.24S
SUNLIGHT       FAIR      41  10  28 NW5G18    30.40F
WILKERSON PASS FAIR      37  21  52 NW10G22   30.34S
$$

COZ069>075-240000-
...SAN LUIS VALLEY/SANGRE DE CRISTO MOUNTAINS...

CITY           SKY/WX    TMP DP  RH WIND       PRES   REMARKS
ALAMOSA        FAIR      66  15  14 NW23G29   30.11F
DEL NORTE      FAIR      63  18  17 W12G21    30.16F
LA VETA PASS   FAIR      43  32  65 N7        30.37S
SAGUACHE       FAIR      63  14  15 NW20G26   30.16S
$$

COZ035-036-038>040-240000-
...NORTHERN COLORADO FRONT RANGE...

CITY           SKY/WX    TMP DP  RH WIND       PRES   REMARKS
DENVER INTL AP FAIR      62  33  33 N21G29    30.11F
DMNS CITY PARK   N/A     61  29  29 N14G20    30.11F
AURORA         MOSUNNY   61  31  31 N18G26    30.12F
FRONT RANGE AP PTSUNNY   61  36  39 N21G31    30.12F
ERIE MUNI ARPT FAIR      63  31  30 N7        30.10F
BOULDER MUN AP CLOUDY    63  32  31 NE6       30.10F
CENTENNIAL     FAIR      59  32  36 N15       30.13F
BROOMFIELD     PTSUNNY   61  30  31 N6        30.13F
FORT COLLINS   FAIR      65  32  29 N15G25    30.09F
LONGMONT       CLOUDY    66  31  27 N7        30.11S
$$

COZ041-046-047-076>085-087-088-240000-
...PIKES PEAK/PALMER DIVIDE AND SOUTHERN FOOTHILLS...

CITY           SKY/WX    TMP DP  RH WIND       PRES   REMARKS
COLO. SPRINGS  FAIR      62  28  27 N22G36    30.12F
A. F. ACADEMY  FAIR      58  27  30 N18G29    30.13S
SCHRIEVER AFB  FAIR      58  27  31 N23G30    30.13S
CHEYENNE MTN   FAIR      55  24  30 N12G22    30.10S
ELLICOTT       FAIR     N/A N/A N/A N22G28    30.12F
FALCON         FAIR      57  26  30 N13G36    30.16F
FORT CARSON    FAIR      62  28  26 N10G26    30.11S
LIMON          PTSUNNY   55  33  43 N20G31    30.10F
MONUMENT HILL  FAIR      52  30  43 N15G23    30.18F
CANON CITY     NOT AVBL
WALSENBURG     NOT AVBL
TRINIDAD       FAIR      60  31  33 NE14      30.12F
$$

COZ042>045-048>051-090-091-240000-
...NORTHEAST COLORADO...

CITY           SKY/WX    TMP DP  RH WIND       PRES   REMARKS
GREELEY ARPT   NOT AVBL
AKRON          PTSUNNY   61  34  36 N23G31    30.07F
BURLINGTON     PTSUNNY   60  35  39 N20G29    30.04F
WRAY           CLOUDY    63  36  36 NW18G26   30.04F
YUMA           CLOUDY    55  21  26 N17G23    30.06F
STERLING       FAIR      63  32  31 N20G29    30.04F
HOLYOKE        NOT AVBL
FORT MORGAN    FAIR      63  30  29 N21G26    30.09F
$$

COZ086-089-092>099-240000-
...SOUTHEAST COLORADO...

CITY           SKY/WX    TMP DP  RH WIND       PRES   REMARKS
PUEBLO         PTSUNNY   68  32  26 VRB3      30.08F
LA JUNTA       FAIR      66  33  29 N14G25    30.07F
LAMAR          FAIR      64  33  31 N21       30.04F
SPRINGFIELD      N/A     60  31  33 N24G32    30.06F
$$




USA.gov is the U.S. government's official web portal to all federal, state and local government web resources and services.